Location: LDNL
(36.4545°S, 141.6685°E)
Time: 12:57:05
(UTC+10:00)

Vanguard 3 - Pass Details

Date: 30 January 2022
Orbit: 508 x 3258 km, 33.3° (Epoch: 25 May)

Event Time Altitude Azimuth Distance (km) Brightness Sun altitude
Rises 02:23:29 0° 277° (W) 4,162 - -35.0°
Reaches altitude 10° 02:25:47 10° 278° (W) 3,467 - -34.9°
Exits shadow 02:32:24 58° 294° (WNW) 2,100 8.8 -34.7°
Maximum altitude 02:35:10 78° 2° (N) 2,085 8.8 -34.5°
Drops below altitude 10° 02:51:52 10° 84° (E) 5,803 11.6 -33.6°
Sets 02:56:59 0° 85° (E) 7,049 12.1 -33.2°
